カタログに戻る

SL-14 DEB

運用中PO
NORAD 45339·DEBRIS·🇷🇺 Russia

打ち上げ Aug 15, 1991 から Plesetsk Cosmodrome

Loading…

次のパス (今後24時間)

TLE

最新Source: Space-Track

元期: Sep 13, 2026, 03:24 UTC

1 45339U 91056CD  26256.14176874  .00005155  00000-0  48560-2 0  9995
2 45339  82.5030 306.8238 0104081 138.4140 222.4993 13.78760228323226

AllMySatでSL-14 DEBをリアルタイム追跡

Download on the App Store